Home   Weather   Atlanta   Past weeks
Flag for USA

Past Weather in Atlanta, Georgia, USA — Yesterday and Last 2 Weeks

Now
73 °F

Sunny.


Feels Like: 76 °F
Forecast: 74 / 58 °F
Wind: 9 mph from Northwest

Location: Fulton County Airport-Brown Field

Current Time: Mar 30, 2020 at 6:01:28 pm

Latest Report: Mar 30, 2020 at 4:53 pm


Visibility: 10 mi

Pressure: 30.06 "Hg

Humidity: 27%

Dew Point: 37 °F

Location of AtlantaLocation

Past Weather in Atlanta — Graph

°F

Atlanta Temperature Yesterday

Maximum temperature yesterday: 77 °F (at 3:53 pm)
Minimum temperature yesterday: 67 °F (at 9:53 pm)
Average temperature yesterday: 72 °F

High & Low Weather Summary for the Past Weeks

 TemperatureHumidityPressure
High86 °F (Mar 27, 4:53 pm)100% (Mar 24, 2:09 am)30.36 "Hg (Mar 24, 2:09 am)
Low45 °F (Mar 22, 6:53 am)22% (Mar 30, 2:53 pm)29.75 "Hg (Mar 24, 11:53 pm)
Average63 °F77%30.12 "Hg
* Reported Mar 15 4:00 pm — Mar 30 4:53 pm, Atlanta. Weather by CustomWeather, © 2020

Note: Actual official high and low records may vary slightly from our data, if they occured in-between our weather recording intervals... More about our weather records

Atlanta Weather History for the Previous 24 Hours

Scroll right to see more
 ConditionsComfort  
Time TempWeatherWind HumidityBarometerVisibility
4:53 pm
Mon, Mar 30
73 °FSunny.9 mph27%30.06 "Hg10 mi
3:53 pm74 °FSunny.10 mph25%30.08 "Hg10 mi
2:53 pm72 °FSunny.13 mph22%30.09 "Hg10 mi
1:53 pm71 °FSunny.10 mph25%30.11 "Hg10 mi
12:53 pm71 °FSunny.8 mph30%30.14 "Hg10 mi
11:53 am69 °FSunny.9 mph31%30.16 "Hg10 mi
10:53 am67 °FSunny.13 mph35%30.15 "Hg10 mi
9:53 am64 °FSunny.8 mph38%30.17 "Hg10 mi
8:53 am60 °FSunny.5 mph44%30.17 "Hg10 mi
7:53 am59 °FSunny.5 mph51%30.18 "Hg10 mi
6:53 am59 °FClear.No wind56%30.14 "Hg10 mi
5:53 am59 °FClear.3 mph58%30.13 "Hg10 mi
4:53 am62 °FClear.3 mph48%30.11 "Hg10 mi
3:53 am63 °FClear.5 mph47%30.11 "Hg10 mi
2:53 am63 °FClear.3 mph48%30.10 "Hg10 mi
1:53 am65 °FClear.No wind45%30.09 "Hg10 mi
12:53 am67 °FClear.7 mph41%30.13 "Hg10 mi
11:53 pm
Sun, Mar 29
67 °FClear.6 mph42%30.11 "Hg10 mi
10:53 pm67 °FClear.No wind44%30.12 "Hg10 mi
9:53 pm67 °FClear.No wind45%30.11 "Hg10 mi
8:53 pm71 °FClear.3 mph34%30.08 "Hg10 mi
7:53 pm72 °FSunny.5 mph31%30.07 "Hg10 mi
6:53 pm76 °FSunny.9 mph25%30.05 "Hg10 mi
Weather by CustomWeather, © 2020

See weather overview

Advertising